Pampa, TX

4:40 AM CST on December 05, 2016 (GMT -0600)
Perry Lefors

Weather History for KPPA - March, 2013

Change the Weather History Date:

Thursday, March 7, 2013

  Actual Average Record
Temperature  
Mean Temperature 54 °F -  
Max Temperature 76 °F 61 °F 83 °F (1972)
Min Temperature 32 °F 29 °F 7 °F (1989)
Degree Days  
Heating Degree Days 11    
Growing Degree Days 4 (Base 50)    
Moisture  
Dew Point 23 °F    
Average Humidity 34    
Maximum Humidity 57    
Minimum Humidity 16    
Precipitation  
Precipitation 0.00 in - - ()
Sea Level Pressure  
Sea Level Pressure 29.97 in    
Wind  
Wind Speed 16 mph (South)    
Max Wind Speed 25 mph    
Max Gust Speed 32 mph    
Visibility 10 miles    
Events      
Averages and records for this station are not official NWS values.
T = Trace of Precipitation, MM = Missing Value Source: NWS Daily Summary

Daily Weather History Graph

Daily Weather History Graph

Search for Another Location

Airport or City:

Trip Planner

Search our weather history database for the weather conditions in past years. The results will help you decide how hot, cold, wet, or windy it might be!

Date:

Astronomy

Mar. 07, 2013 Rise Set
Actual Time 7:05 AM CST 6:44 PM CST
Civil Twilight 6:39 AM CST 7:10 PM CST
Nautical Twilight 6:10 AM CST 7:39 PM CST
Astronomical Twilight 5:40 AM CST 8:09 PM CST
Moon 3:59 AM CST (3/7) 2:41 PM CST (3/7)
Length of Visible Light 12h 30m
Length of Day
11h 39m
Waning Crescent, 20% of the Moon is Illuminated
Mar 7
Waning Crescent
Mar 11
New
Mar 19
First Quarter
Mar 27
Full
Apr 2
Last Quarter

Hourly Weather History & Observations

Time (CST) Temp. Windchill Dew Point Humidity Pressure Visibility Wind Dir Wind Speed Gust Speed Precip Events Conditions
12:15 AM 40.5 °F 30.7 °F 15.4 °F 36% 30.01 in 10.0 mi South 21.9 mph 27.6 mph N/A   Clear
12:35 AM 40.3 °F 31.3 °F 15.4 °F 37% 30.01 in 10.0 mi South 18.4 mph - N/A   Clear
12:55 AM 40.1 °F 31.0 °F 15.4 °F 37% 30.01 in 10.0 mi South 18.4 mph 25.3 mph N/A   Clear
1:15 AM 40.3 °F 31.9 °F 14.9 °F 36% 30.01 in 10.0 mi SSE 16.1 mph - N/A   Clear
1:35 AM 39.7 °F 31.2 °F 15.3 °F 37% 30.01 in 10.0 mi South 16.1 mph - N/A   Clear
1:55 AM 37.9 °F 30.9 °F 16.2 °F 41% 30.01 in 10.0 mi SSE 10.4 mph - N/A   Clear
2:15 AM 38.3 °F 30.5 °F 16.0 °F 40% 30.01 in 10.0 mi South 12.7 mph - N/A   Clear
2:35 AM 37.8 °F 31.3 °F 16.0 °F 41% 30.01 in 10.0 mi SSE 9.2 mph - N/A   Clear
2:55 AM 35.8 °F 28.3 °F 16.7 °F 46% 30.00 in 10.0 mi South 10.4 mph - N/A   Clear
3:15 AM 36.0 °F 28.0 °F 16.7 °F 46% 29.99 in 10.0 mi South 11.5 mph - N/A   Clear
3:35 AM 36.0 °F 29.0 °F 16.5 °F 45% 29.98 in 10.0 mi South 9.2 mph - N/A   Clear
3:55 AM 35.6 °F 28.0 °F 16.7 °F 46% 29.98 in 10.0 mi South 10.4 mph - N/A   Clear
4:15 AM 35.1 °F 27.4 °F 17.1 °F 48% 29.97 in 10.0 mi South 10.4 mph - N/A   Clear
4:35 AM 35.1 °F 27.4 °F 17.2 °F 48% 29.96 in 10.0 mi South 10.4 mph - N/A   Clear
4:55 AM 34.3 °F 25.9 °F 17.6 °F 50% 29.96 in 10.0 mi South 11.5 mph - N/A   Clear
5:15 AM 34.0 °F 26.6 °F 18.0 °F 52% 29.97 in 10.0 mi South 9.2 mph - N/A   Clear
5:35 AM 33.8 °F 27.7 °F 18.1 °F 53% 29.97 in 10.0 mi South 6.9 mph - N/A   Clear
5:55 AM 33.3 °F 25.1 °F 18.5 °F 55% 29.97 in 10.0 mi South 10.4 mph - N/A   Clear
6:15 AM 32.7 °F 23.9 °F 18.9 °F 57% 29.96 in 10.0 mi South 11.5 mph - N/A   Clear
6:35 AM 32.9 °F 25.9 °F 19.0 °F 57% 29.97 in 10.0 mi South 8.1 mph - N/A   Clear
6:55 AM 32.9 °F 23.7 °F 19.2 °F 57% 29.97 in 10.0 mi South 12.7 mph - N/A   Clear
7:15 AM 33.1 °F 24.4 °F 19.4 °F 57% 29.98 in 10.0 mi South 11.5 mph - N/A   Clear
7:35 AM 33.8 °F 25.8 °F 19.6 °F 56% 29.99 in 10.0 mi South 10.4 mph - N/A   Clear
7:55 AM 36.0 °F 28.5 °F 20.1 °F 53% 29.99 in 10.0 mi South 10.4 mph - N/A   Clear
8:15 AM 39.6 °F 32.1 °F 20.8 °F 47% 30.00 in 10.0 mi SSW 12.7 mph - N/A   Clear
8:35 AM 43.5 °F 36.1 °F 21.2 °F 41% 30.00 in 10.0 mi South 16.1 mph - N/A   Clear
8:55 AM 46.0 °F 39.0 °F 21.4 °F 38% 30.00 in 10.0 mi South 17.3 mph - N/A   Clear
9:15 AM 48.9 °F - 21.9 °F 35% 30.00 in 10.0 mi SSW 15.0 mph - N/A   Clear
9:35 AM 52.0 °F - 23.0 °F 32% 30.00 in 10.0 mi South 15.0 mph - N/A   Clear
9:55 AM 55.6 °F - 23.7 °F 29% 30.00 in 10.0 mi SSW 12.7 mph - N/A   Clear
10:15 AM 58.5 °F - 24.4 °F 27% 30.00 in 10.0 mi SSW 12.7 mph - N/A   Clear
10:35 AM 59.4 °F - 25.2 °F 27% 30.01 in 10.0 mi SSW 13.8 mph - N/A   Clear
10:55 AM 61.5 °F - 26.4 °F 26% 30.01 in 10.0 mi SSW 12.7 mph - N/A   Clear
11:15 AM 64.8 °F - 27.1 °F 24% 30.00 in 10.0 mi SSW 13.8 mph - N/A   Clear
11:35 AM 66.7 °F - 27.1 °F 23% 30.00 in 10.0 mi SSW 13.8 mph - N/A   Clear
11:55 AM 69.3 °F - 26.8 °F 20% 30.00 in 10.0 mi SSW 13.8 mph 19.6 mph N/A   Clear
12:15 PM 72.0 °F - 26.4 °F 18% 29.99 in 10.0 mi SSW 12.7 mph - N/A   Clear
12:35 PM 74.5 °F - 25.9 °F 16% 29.99 in 10.0 mi SSW 17.3 mph - N/A   Clear
12:55 PM 74.5 °F - 27.3 °F 17% 29.98 in 10.0 mi South 15.0 mph 21.9 mph N/A   Clear
1:15 PM 73.6 °F - 27.5 °F 18% 29.97 in 10.0 mi South 16.1 mph - N/A   Clear
1:35 PM 73.4 °F - 27.5 °F 18% 29.97 in 10.0 mi South 19.6 mph - N/A   Clear
1:55 PM 74.1 °F - 27.1 °F 18% 29.96 in 10.0 mi South 20.7 mph - N/A   Clear
2:15 PM 74.8 °F - 27.7 °F 17% 29.95 in 10.0 mi SSW 20.7 mph 25.3 mph N/A   Clear
2:35 PM 76.5 °F - 27.5 °F 16% 29.94 in 10.0 mi SSW 18.4 mph 24.2 mph N/A   Clear
2:55 PM 75.7 °F - 27.3 °F 17% 29.94 in 10.0 mi South 20.7 mph 26.5 mph N/A   Clear
3:15 PM 75.7 °F - 27.3 °F 17% 29.94 in 10.0 mi South 20.7 mph 27.6 mph N/A   Clear
3:35 PM 75.4 °F - 26.8 °F 17% 29.94 in 10.0 mi South 19.6 mph 25.3 mph N/A   Clear
3:55 PM 75.2 °F - 26.6 °F 17% 29.94 in 10.0 mi South 21.9 mph 28.8 mph N/A   Clear
4:15 PM 74.8 °F - 26.6 °F 17% 29.93 in 10.0 mi South 21.9 mph 27.6 mph N/A   Clear
4:35 PM 73.9 °F - 25.7 °F 17% 29.93 in 10.0 mi South 18.4 mph 24.2 mph N/A   Clear
4:55 PM 73.0 °F - 25.9 °F 17% 29.93 in 10.0 mi SSE 20.7 mph 26.5 mph N/A   Clear
5:15 PM 71.2 °F - 25.2 °F 18% 29.93 in 10.0 mi SSE 20.7 mph - N/A   Clear
5:35 PM 69.1 °F - 24.4 °F 19% 29.93 in 10.0 mi SSE 21.9 mph 27.6 mph N/A   Clear
5:55 PM 67.3 °F - 24.1 °F 20% 29.94 in 10.0 mi SSE 20.7 mph 27.6 mph N/A   Clear
7:35 PM 58.5 °F - 23.9 °F 26% 29.96 in 10.0 mi SSE 21.9 mph - N/A   Clear
7:55 PM 58.1 °F - 23.9 °F 27% 29.96 in 10.0 mi SSE 21.9 mph 29.9 mph N/A   Clear
8:15 PM 56.7 °F - 25.0 °F 30% 29.96 in 10.0 mi SSE 19.6 mph 24.2 mph N/A   Clear
8:35 PM 56.7 °F - 25.7 °F 30% 29.96 in 10.0 mi SSE 19.6 mph - N/A   Clear
8:55 PM 55.9 °F - 26.6 °F 32% 29.96 in 10.0 mi SSE 19.6 mph 25.3 mph N/A   Clear
9:15 PM 56.3 °F - 27.5 °F 33% 29.96 in 10.0 mi SSE 21.9 mph 27.6 mph N/A   Clear
9:35 PM 55.8 °F - 28.2 °F 35% 29.97 in 10.0 mi SSE 21.9 mph - N/A   Clear
9:55 PM 55.4 °F - 28.9 °F 36% 29.97 in 10.0 mi SSE 21.9 mph 26.5 mph N/A   Clear
10:15 PM 55.2 °F - 30.0 °F 38% 29.97 in 10.0 mi SSE 20.7 mph 27.6 mph N/A   Clear
10:35 PM 54.7 °F - 31.1 °F 41% 29.97 in 10.0 mi South 20.7 mph 28.8 mph N/A   Clear
10:55 PM 54.5 °F - 32.0 °F 42% 29.97 in 10.0 mi South 19.6 mph 26.5 mph N/A   Clear
11:15 PM 53.8 °F - 32.9 °F 45% 29.96 in 10.0 mi South 23.0 mph 26.5 mph N/A   Clear
11:35 PM 53.6 °F - 33.8 °F 47% 29.96 in 10.0 mi South 25.3 mph 32.2 mph N/A   Clear
11:55 PM 53.8 °F - 34.3 °F 48% 29.96 in 10.0 mi South 23.0 mph - N/A   Clear